Lafayette, LA

9:54 AM CDT on October 21, 2017 (GMT -0500)
Lafayette Regional

Weather History for KLFT - December, 2014

Change the Weather History Date:

Monday, December 15, 2014

  Actual Average Record
Temperature  
Mean Temperature 69 °F 54 °F  
Max Temperature 77 °F 64 °F 82 °F (1924)
Min Temperature 60 °F 44 °F 21 °F (1901)
Degree Days  
Heating Degree Days 0 11  
Month to date heating degree days 81 154  
Since 1 July heating degree days 382 353  
Cooling Degree Days 4    
Growing Degree Days 18 (Base 50)    
Moisture  
Dew Point 62 °F    
Average Humidity 77    
Maximum Humidity 93    
Minimum Humidity 60    
Precipitation  
Precipitation 0.06 in 0.18 in 2.61 in (1961)
Month to date precipitation 0.06 2.60  
Year to date precipitation 56.56 57.52  
Snow  
Snow 0.00 in 0.00 in 0.00 in ()
Month to date snowfall 0.0 0.0  
Since 1 July snowfall 0.0 0.0  
Snow Depth 0.00 in    
Sea Level Pressure  
Sea Level Pressure 30.00 in    
Wind  
Wind Speed 10 mph (SSW)    
Max Wind Speed 25 mph    
Max Gust Speed 31 mph    
Visibility 10 miles    
Events Rain    
T = Trace of Precipitation, MM = Missing Value Source: NWS Daily Summary

Daily Weather History Graph

Daily Weather History Graph

Search for Another Location

Airport or City:

Trip Planner

Search our weather history database for the weather conditions in past years. The results will help you decide how hot, cold, wet, or windy it might be!

Date:

Astronomy

Dec. 15, 2014 Rise Set
Actual Time 6:56 AM CST 5:09 PM CST
Civil Twilight 6:30 AM CST 5:35 PM CST
Nautical Twilight 6:00 AM CST 6:05 PM CST
Astronomical Twilight 5:31 AM CST 6:35 PM CST
Moon 12:39 AM CST (12/15) 12:47 PM CST (12/15)
Length of Visible Light 11h 05m
Length of Day
10h 12m
Last Quarter, 39% of the Moon is Illuminated
Dec 15
Last Quarter
Dec 21
New
Dec 28
First Quarter
Jan 4
Full
Jan 13
Last Quarter

Hourly Weather History & Observations

Time (CST) Temp. Dew Point Humidity Pressure Visibility Wind Dir Wind Speed Gust Speed Precip Events Conditions
12:53 AM 61.0 °F 54.0 °F 78% 30.03 in 10.0 mi SSE 3.5 mph - N/A   Overcast
1:53 AM 61.0 °F 55.0 °F 81% 30.01 in 10.0 mi Variable 4.6 mph - N/A   Overcast
2:53 AM 61.0 °F 55.9 °F 83% 30.01 in 10.0 mi SSE 4.6 mph - N/A   Mostly Cloudy
3:53 AM 60.1 °F 55.9 °F 86% 29.99 in 10.0 mi SSE 6.9 mph - N/A   Clear
4:53 AM 61.0 °F 57.0 °F 87% 29.99 in 10.0 mi South 6.9 mph - N/A   Scattered Clouds
5:53 AM 61.0 °F 57.0 °F 87% 29.99 in 10.0 mi SSE 5.8 mph - N/A   Mostly Cloudy
6:53 AM 62.1 °F 57.9 °F 86% 30.00 in 10.0 mi South 6.9 mph - N/A   Mostly Cloudy
7:40 AM 63.0 °F 59.0 °F 87% 30.00 in 10.0 mi SSE 6.9 mph - N/A   Mostly Cloudy
7:53 AM 63.0 °F 60.1 °F 90% 30.00 in 10.0 mi SSE 6.9 mph - N/A   Mostly Cloudy
8:04 AM 64.0 °F 60.1 °F 87% 30.01 in 10.0 mi South 6.9 mph - N/A   Mostly Cloudy
8:53 AM 66.9 °F 63.0 °F 87% 30.02 in 10.0 mi South 9.2 mph - N/A   Overcast
9:53 AM 70.0 °F 64.0 °F 81% 30.03 in 10.0 mi South 10.4 mph 19.6 mph N/A   Overcast
10:53 AM 72.0 °F 64.9 °F 78% 30.02 in 9.0 mi South 10.4 mph - 0.00 in   Overcast
11:53 AM 73.9 °F 64.9 °F 73% 29.99 in 10.0 mi SSW 12.7 mph - N/A   Overcast
12:53 PM 75.9 °F 63.0 °F 64% 29.96 in 10.0 mi SW 23.0 mph 28.8 mph N/A   Overcast
1:03 PM 75.9 °F 63.0 °F 64% 29.96 in 10.0 mi SSW 21.9 mph 31.1 mph N/A   Overcast
1:37 PM 77.0 °F 62.6 °F 61% 29.95 in 10.0 mi SW 21.9 mph 31.1 mph N/A   Overcast
1:53 PM 77.0 °F 63.0 °F 62% 29.94 in 10.0 mi SW 19.6 mph 29.9 mph N/A   Overcast
2:53 PM 75.0 °F 63.0 °F 66% 29.95 in 10.0 mi SW 15.0 mph 28.8 mph N/A   Mostly Cloudy
3:25 PM 75.0 °F 63.0 °F 66% 29.95 in 10.0 mi SW 17.3 mph 25.3 mph N/A   Overcast
3:53 PM 75.0 °F 64.0 °F 69% 29.95 in 10.0 mi SW 13.8 mph 25.3 mph N/A   Overcast
4:35 PM 73.0 °F 64.0 °F 73% 29.96 in 10.0 mi SSW 15.0 mph - N/A   Mostly Cloudy
4:43 PM 73.0 °F 64.0 °F 73% 29.96 in 10.0 mi SSW 15.0 mph - N/A   Overcast
4:53 PM 73.0 °F 64.0 °F 73% 29.96 in 10.0 mi SSW 15.0 mph - N/A   Overcast
5:41 PM 71.1 °F 64.0 °F 78% 29.98 in 10.0 mi SW 11.5 mph - N/A   Mostly Cloudy
5:53 PM 71.1 °F 64.0 °F 78% 29.98 in 10.0 mi SW 11.5 mph - N/A   Scattered Clouds
6:37 PM 70.0 °F 64.9 °F 84% 29.99 in 10.0 mi SSW 12.7 mph - N/A   Mostly Cloudy
6:53 PM 70.0 °F 64.9 °F 84% 30.00 in 10.0 mi SW 12.7 mph - N/A   Mostly Cloudy
7:20 PM 69.1 °F 64.9 °F 87% 30.01 in 10.0 mi SW 13.8 mph - N/A   Partly Cloudy
7:53 PM 69.1 °F 64.9 °F 87% 30.01 in 10.0 mi SW 12.7 mph - N/A   Partly Cloudy
8:07 PM 69.1 °F 64.9 °F 87% 30.02 in 10.0 mi SW 9.2 mph - N/A   Mostly Cloudy
8:36 PM 69.1 °F 64.9 °F 87% 30.02 in 10.0 mi SW 11.5 mph - N/A   Partly Cloudy
8:53 PM 68.0 °F 64.9 °F 90% 30.03 in 10.0 mi SW 9.2 mph - N/A   Partly Cloudy
9:53 PM 69.1 °F 64.9 °F 87% 30.04 in 10.0 mi SW 11.5 mph - N/A   Overcast
10:13 PM 69.1 °F 64.9 °F 87% 30.05 in 10.0 mi SW 10.4 mph - N/A   Overcast
10:50 PM 68.0 °F 62.6 °F 83% 30.06 in 10.0 mi West 8.1 mph - 0.06 in Rain Light Rain
10:53 PM 68.0 °F 63.0 °F 84% 30.06 in 10.0 mi West 8.1 mph - 0.06 in   Overcast
11:53 PM 66.0 °F 63.0 °F 90% 30.08 in 10.0 mi NW 9.2 mph - N/A   Overcast